Location: Laterina
(43.5167°N, 11.7167°E)
Time: 13:02:34
(UTC+00:00)

Cosmos 2026 Rocket - Pass Details

Date: 20 January 2021
Orbit: 940 x 1000 km, 82.9° (Epoch: 28 February)

Event Time Altitude Azimuth Distance (km) Brightness Sun altitude
Rises 04:15:40 0° 3° (N) 3,703 7.0 -25.9°
Reaches altitude 10° 04:18:47 10° 17° (NNE) 2,759 6.5 -25.3°
Maximum altitude 04:23:43 23° 69° (ENE) 1,969 6.2 -24.5°
Drops below altitude 10° 04:28:38 10° 120° (ESE) 2,765 7.3 -23.6°
Sets 04:31:44 0° 134° (SE) 3,712 7.8 -23.0°
